Wind_Speed
56 56 56 55 55 55 55 55 54 53 52 53 52 53 55 56 56 56 56 55 56 56 56 56 55 55 55 55 54 53 52 51 50 49 50 49 48 47
55 56 56 55 55 55 55 55 55 55 54 53 53 53 54 55 56 56 55 55 56 56 56 56 56 56 55 55 55 55 54 53 52 51 51 50 49 49
57 56 56 56 56 56 56 55 55 55 54 53 53 53 53 53 54 54 55 55 56 57 57 56 56 56 56 55 55 55 55 55 54 53 53 52 51 50
58 57 57 57 57 57 57 56 56 56 55 53 52 53 53 52 52 53 55 54 55 56 57 57 57 56 56 56 56 57 57 58 56 55 54 53 52 52
59 58 58 58 58 57 57 56 57 56 55 54 52 53 53 54 53 53 53 54 55 56 57 57 58 57 57 57 57 58 59 59 57 56 56 55 54 54
59 58 58 58 58 58 57 56 56 56 55 54 53 52 53 54 55 55 54 53 54 55 57 57 57 57 58 58 59 60 60 59 58 57 56 56 55 55
58 58 58 58 57 57 57 56 57 56 56 55 54 53 53 53 54 54 54 53 54 54 55 57 58 58 59 59 59 59 59 59 59 59 58 58 57 57
57 57 56 56 56 56 56 55 56 56 55 54 53 53 53 53 54 54 54 54 53 54 55 56 57 58 58 58 58 59 59 60 60 60 59 59 58 58
56 56 55 55 55 55 55 55 54 53 53 53 53 52 52 52 52 52 53 54 53 54 54 54 56 57 58 60 59 59 59 60 61 61 61 60 60 59
54 55 54 53 54 54 54 54 54 52 52 52 53 52 52 52 52 52 52 53 53 53 53 53 55 57 58 59 60 59 60 60 60 61 61 61 60 60
52 53 53 53 53 53 53 53 53 53 52 51 51 51 51 52 52 53 52 52 52 53 54 54 54 55 57 58 59 59 58 59 59 60 60 60 61 61
50 51 51 51 51 52 52 52 52 52 52 51 51 51 51 52 52 52 52 51 51 52 52 53 54 55 55 56 58 58 58 58 58 59 60 61 61 62
49 50 50 51 51 50 51 52 53 53 52 51 51 51 51 52 52 52 52 52 52 52 52 53 53 54 54 54 56 57 58 57 58 59 59 59 60 61
47 47 48 49 50 49 50 51 52 52 51 51 50 51 51 52 52 52 52 53 53 52 52 53 53 53 53 54 54 55 56 57 57 58 58 58 58 59
45 46 47 47 48 49 49 50 50 50 50 49 49 49 50 51 51 52 52 52 52 52 52 53 53 52 52 52 52 53 55 56 57 57 58 58 58 59
43 44 45 45 46 47 47 47 47 48 48 48 48 48 48 49 50 50 50 49 49 49 50 51 51 52 51 50 51 51 53 54 55 56 56 57 57 57
41 41 42 43 43 44 44 45 45 46 46 46 47 47 48 48 48 48 48 48 48 48 48 48 48 48 48 48 49 50 51 52 53 54 54 54 55 54
40 40 40 41 41 42 41 42 43 44 44 45 45 46 46 46 46 46 46 47 47 46 46 47 47 48 48 48 48 48 49 50 50 51 52 52 52 52
38 38 38 38 39 40 40 40 41 41 42 43 44 45 45 44 44 44 44 45 45 45 45 45 46 47 47 46 46 48 48 48 48 49 50 51 50 50
37 37 37 37 37 38 38 38 38 39 39 41 42 43 44 44 44 43 43 43 43 43 43 44 45 45 46 45 44 45 47 47 48 48 49 49 48 49
35 36 35 35 35 36 37 36 36 37 37 38 39 41 41 42 42 42 42 43 42 41 41 42 43 44 45 45 44 43 44 46 47 47 48 48 47 47
33 33 33 33 34 35 36 35 35 36 36 36 36 37 38 39 40 40 41 41 40 40 40 41 41 42 43 43 42 42 42 44 45 46 46 47 46 45
30 30 31 32 33 33 34 34 33 34 34 35 35 35 36 37 38 38 39 39 39 39 39 40 40 40 40 41 41 41 42 42 43 44 44 45 44 44
Wind_Direction
259 260 260 260 261 262 263 263 264 264 263 264 263 262 261 261 260 260 259 258 257 256 256 256 256 256 256 256 256 256 258 259 259 260 261 263 264 264
259 259 259 260 261 262 262 263 264 264 264 263 262 262 262 261 260 259 259 258 257 256 255 255 255 255 255 255 255 255 257 258 259 259 261 262 263 263
258 259 260 260 260 261 262 263 264 265 265 263 262 261 260 260 259 259 259 259 257 256 254 253 253 253 253 254 254 255 256 257 258 259 260 261 262 263
258 259 259 260 261 262 263 263 264 265 265 263 262 261 259 258 259 260 261 261 259 256 253 252 252 252 253 253 255 255 255 257 258 259 259 260 261 262
259 259 260 260 261 262 263 263 264 264 264 263 261 260 259 259 260 261 261 261 259 256 254 252 251 251 252 253 255 256 256 256 257 257 257 259 260 261
258 259 260 261 261 262 263 263 263 264 264 262 261 260 260 260 261 261 261 261 259 257 255 253 252 252 253 254 256 257 256 256 255 256 256 258 260 260
259 259 261 261 261 263 263 263 264 264 263 263 262 261 261 261 261 261 261 261 260 259 256 253 253 254 254 255 257 258 258 257 256 257 257 258 259 260
259 259 260 261 261 262 263 264 264 264 263 262 262 262 262 262 261 261 262 261 261 260 257 255 255 255 256 256 257 258 258 258 257 257 257 258 259 260
259 259 259 260 261 262 262 263 264 264 263 262 261 262 263 263 262 261 261 261 261 260 258 258 257 256 257 257 257 257 258 258 258 257 256 257 257 259
260 259 259 260 261 262 261 261 262 262 262 262 262 262 262 262 262 261 261 262 260 259 259 259 258 258 259 258 257 257 258 257 257 256 256 255 256 257
260 259 259 259 261 261 261 261 262 261 260 261 261 261 261 261 262 261 261 261 260 259 260 260 260 260 260 259 258 258 258 257 257 256 255 255 255 256
260 260 260 260 260 261 261 262 262 260 259 259 259 260 260 261 261 261 261 261 259 260 260 261 261 261 260 260 259 258 258 258 257 256 256 255 255 256
260 260 260 260 260 261 261 262 262 260 259 258 258 259 260 261 261 261 261 261 260 260 260 261 262 262 261 260 260 260 259 258 257 257 256 257 257 257
261 260 260 260 259 260 261 262 261 259 258 257 257 258 259 260 261 260 261 260 260 260 260 262 264 263 262 261 260 259 259 259 258 258 257 257 257 257
261 261 261 260 259 260 261 261 260 258 257 257 258 259 259 260 260 261 261 260 259 261 262 263 264 265 264 262 260 259 259 258 257 258 257 257 257 258
262 261 261 260 260 260 260 260 258 257 256 257 257 259 259 259 260 260 261 261 261 262 263 263 264 265 264 263 262 260 259 257 257 258 258 258 258 259
262 262 261 260 259 259 259 258 257 256 255 257 258 258 259 259 260 262 262 261 261 262 263 262 262 264 265 264 263 261 259 258 257 258 259 259 259 260
261 261 261 260 259 259 258 258 258 256 256 257 258 258 259 259 259 261 261 262 262 263 263 264 264 264 266 266 265 263 260 258 258 258 259 258 258 259
260 260 261 260 259 258 258 259 259 257 256 257 258 258 259 259 260 261 262 262 262 262 263 265 265 265 267 267 265 263 262 259 258 259 260 259 259 260
259 260 261 260 259 257 257 259 258 257 256 257 258 259 259 260 261 261 263 263 263 263 265 266 267 267 267 267 265 264 262 260 260 260 260 260 260 260
259 259 259 258 257 257 257 258 258 257 258 259 259 260 259 260 260 261 262 264 265 266 267 268 268 268 267 266 266 264 263 262 262 261 261 260 259 260
258 259 258 258 258 259 258 258 258 259 260 261 260 259 260 261 262 263 263 264 266 267 268 269 269 268 267 266 266 265 265 264 262 261 261 260 259 260
259 260 259 259 260 260 260 259 260 260 260 261 260 261 263 264 264 264 264 264 266 267 269 270 270 270 268 266 266 267 266 264 263 262 261 260 260 260
Height
5622 5624 5626 5628 5629 5631 5633 5634 5637 5639 5642 5643 5644 5644 5646 5648 5649 5651 5654 5657 5660 5663 5666 5670 5674 5678 5681 5685 5688 5691 5693 5696 5698 5700 5702 5704 5705 5706
5606 5608 5610 5612 5614 5616 5617 5618 5620 5622 5625 5628 5628 5629 5630 5632 5633 5635 5638 5640 5643 5646 5650 5653 5657 5661 5665 5668 5672 5675 5679 5681 5683 5686 5688 5689 5691 5692
5590 5592 5595 5596 5598 5600 5601 5603 5604 5605 5608 5611 5612 5613 5614 5616 5618 5619 5622 5624 5627 5630 5633 5637 5641 5645 5649 5652 5656 5659 5663 5665 5668 5670 5673 5675 5676 5678
5573 5576 5579 5580 5583 5584 5586 5587 5588 5590 5591 5594 5596 5597 5598 5600 5602 5604 5606 5608 5610 5613 5617 5621 5625 5629 5632 5636 5640 5643 5646 5649 5652 5655 5658 5661 5662 5663
5557 5559 5562 5564 5566 5568 5569 5571 5572 5573 5575 5577 5580 5581 5583 5584 5586 5588 5590 5592 5594 5597 5600 5604 5608 5612 5616 5620 5623 5627 5630 5633 5637 5639 5641 5644 5647 5648
5540 5543 5546 5548 5550 5551 5553 5555 5556 5557 5558 5560 5563 5565 5567 5569 5570 5572 5574 5576 5579 5581 5584 5588 5592 5596 5600 5603 5607 5610 5613 5616 5619 5622 5625 5628 5631 5633
5524 5527 5529 5531 5533 5535 5536 5538 5540 5541 5542 5544 5547 5549 5552 5553 5554 5556 5558 5560 5563 5565 5568 5572 5576 5580 5583 5586 5589 5593 5595 5598 5602 5605 5608 5611 5614 5616
5508 5510 5513 5515 5517 5518 5520 5522 5523 5525 5527 5528 5531 5534 5536 5537 5538 5540 5542 5545 5549 5551 5552 5556 5559 5563 5566 5569 5572 5575 5578 5581 5584 5587 5591 5594 5597 5599
5492 5494 5497 5499 5501 5503 5504 5506 5507 5508 5511 5513 5516 5518 5520 5522 5523 5525 5526 5528 5532 5535 5537 5540 5542 5546 5548 5551 5555 5558 5561 5564 5567 5570 5573 5576 5579 5582
5476 5478 5481 5483 5485 5487 5489 5491 5492 5494 5496 5498 5501 5503 5504 5505 5507 5509 5510 5513 5516 5518 5521 5523 5526 5529 5531 5534 5537 5540 5542 5546 5548 5551 5554 5558 5561 5564
5461 5463 5465 5468 5470 5472 5474 5476 5478 5479 5480 5483 5485 5487 5489 5491 5492 5494 5496 5498 5501 5504 5506 5508 5510 5512 5515 5517 5519 5522 5524 5527 5530 5533 5536 5539 5543 5545
5447 5449 5451 5453 5454 5456 5458 5460 5463 5464 5466 5468 5470 5472 5474 5476 5477 5479 5481 5483 5485 5488 5491 5492 5494 5496 5499 5502 5503 5505 5507 5509 5511 5514 5517 5521 5524 5527
5433 5435 5437 5438 5440 5441 5443 5445 5447 5449 5451 5453 5455 5457 5459 5461 5462 5464 5466 5468 5470 5473 5475 5477 5479 5480 5481 5485 5487 5488 5489 5491 5493 5496 5499 5502 5505 5509
5419 5421 5422 5424 5425 5427 5429 5430 5431 5433 5435 5438 5440 5443 5445 5446 5448 5450 5452 5453 5455 5458 5459 5461 5463 5464 5466 5469 5471 5472 5473 5474 5476 5479 5482 5485 5488 5490
5405 5406 5408 5409 5410 5413 5414 5415 5416 5418 5420 5423 5426 5428 5431 5432 5434 5436 5437 5439 5441 5443 5444 5446 5447 5449 5450 5452 5454 5456 5457 5458 5459 5462 5465 5467 5471 5473
5391 5393 5394 5395 5396 5398 5400 5401 5402 5405 5407 5410 5412 5415 5417 5419 5420 5422 5424 5425 5427 5429 5430 5431 5432 5434 5435 5436 5438 5439 5440 5442 5444 5445 5448 5451 5454 5457
5378 5380 5381 5382 5383 5385 5387 5388 5390 5392 5394 5397 5399 5401 5403 5405 5407 5408 5410 5412 5413 5415 5417 5417 5418 5419 5420 5421 5422 5423 5424 5426 5428 5430 5432 5435 5438 5441
5365 5367 5368 5370 5372 5373 5375 5376 5378 5380 5382 5384 5386 5388 5390 5392 5394 5395 5397 5398 5400 5401 5403 5404 5404 5405 5406 5407 5407 5408 5409 5411 5412 5414 5416 5419 5424 5425
5353 5355 5357 5358 5360 5362 5363 5365 5367 5368 5370 5372 5374 5376 5378 5379 5381 5383 5384 5385 5387 5388 5389 5390 5390 5391 5392 5393 5394 5393 5394 5396 5397 5399 5401 5404 5408 5410
5342 5344 5345 5347 5348 5351 5352 5354 5355 5357 5359 5360 5362 5363 5365 5367 5368 5370 5371 5372 5374 5375 5376 5376 5376 5377 5377 5379 5381 5381 5379 5381 5383 5385 5387 5389 5392 5394
5331 5333 5334 5336 5338 5340 5341 5343 5345 5346 5348 5349 5350 5352 5353 5354 5356 5357 5359 5360 5361 5362 5363 5364 5363 5364 5364 5365 5367 5368 5367 5367 5369 5370 5372 5375 5377 5379
5321 5323 5324 5326 5327 5329 5331 5332 5334 5336 5337 5338 5339 5340 5341 5342 5344 5345 5347 5348 5349 5350 5351 5351 5351 5351 5351 5352 5353 5354 5355 5355 5355 5357 5358 5360 5362 5365
5311 5313 5315 5316 5318 5319 5321 5322 5323 5325 5326 5327 5328 5329 5330 5331 5332 5334 5335 5336 5337 5338 5338 5339 5339 5339 5338 5339 5340 5341 5341 5342 5342 5344 5346 5347 5349 5351